Regional Weather Roundup
Issued by NWS

Home | Current Version | Previous Version | Graphics & Text | Print | Product List | Glossary On
Versions: 1 2 3 4 5 6 7 8 9 10 11 12 13 14 15 16 17 18 19 20 21 22 23 24 25 26 27 28 29 30 31 32 33 34 35 36 37 38 39 40 41 42 43 44 45 46 47 48 49 50
000
ASUS43 KMKX 261221
RWRWI

WISCONSIN REGIONAL WEATHER ROUNDUP
NATIONAL WEATHER SERVICE MILWAUKEE/SULLIVAN WI
700 AM CDT TUE MAY 26 2015

NOTE: "FAIR" INDICATES FEW OR NO CLOUDS BELOW 12,000 FEET WITH NO
SIGNIFICANT WEATHER AND/OR OBSTRUCTIONS TO VISIBILITY.

WIZ001-002-006>008-014>016-023>028-261300-
NORTHWEST WISCONSIN

CITY           SKY/WX    TMP DP  RH WIND       PRES   REMARKS
SUPERIOR ARPT  CLOUDY    50  50 100 CALM      29.86R FOG
6HR MIN TEMP:  46; 6HR MAX TEMP:  50; 6HR PCP:  0.04;

ASHLAND        FOG       51  51 100 N5        29.85S VSB 1/2
6HR MIN TEMP:  50; 6HR MAX TEMP:  51;

HAYWARD        FOG       56  55  97 CALM      29.82R VSB 1/2
6HR MIN TEMP:  52; 6HR MAX TEMP:  57;

SIREN          FOG       52  51  97 N5        29.83R VSB 1/2
6HR MIN TEMP:  51; 6HR MAX TEMP:  56;

CUMBERLAND     CLOUDY    54  54 100 CALM      29.83R FOG
RICE LAKE      FOG       57  56  95 CALM      29.84R VSB 1/2
6HR MIN TEMP:  55; 6HR MAX TEMP:  59;

CHETEK         FOG       58  58 100 CALM      29.83R VSB<1/4
6HR MIN TEMP:  56; 6HR MAX TEMP:  59;

LADYSMITH      FOG       60  59  97 CALM      29.85R VSB 3/4
6HR MIN TEMP:  56; 6HR MAX TEMP:  62;

EAU CLAIRE     PTSUNNY   61  59  93 NE3       29.81R
6HR MIN TEMP:  55; 6HR MAX TEMP:  61;

MENOMONIE      CLOUDY    58  58  99 CALM      29.82R FOG
6HR MIN TEMP:  55; 6HR MAX TEMP:  60;

NEW RICHMOND   CLOUDY    57  57 100 NE5       29.82R FOG
6HR MIN TEMP:  54; 6HR MAX TEMP:  61;

OSCEOLA        FOG       55  55 100 N5        29.84R VSB 1/2
6HR MIN TEMP:  50; 6HR MAX TEMP:  58;

$$

WIZ003>005-009-010-017-018-261300-
NORTH CENTRAL WISCONSIN

CITY           SKY/WX    TMP DP  RH WIND       PRES   REMARKS
MANITOWISH WTR CLOUDY    60  60 100 S3        29.84R
6HR MIN TEMP:  58; 6HR MAX TEMP:  60;

ARBOR VITAE    CLOUDY    60  58  95 S3        29.85R FOG
6HR MIN TEMP:  57; 6HR MAX TEMP:  62;

WOODRUFF       CLOUDY    60  58  95 S3        29.85R FOG
6HR MIN TEMP:  57; 6HR MAX TEMP:  62;

RHINELANDER    CLOUDY    62  60  93 SW5       29.86R
6HR MIN TEMP:  58; 6HR MAX TEMP:  62;

EAGLE RIVER    CLOUDY    60  60 100 CALM      29.85R
6HR MIN TEMP:  58; 6HR MAX TEMP:  61;

LAND O LAKES   CLOUDY    60  60 100 CALM      29.86R FOG
6HR MIN TEMP:  56; 6HR MAX TEMP:  60;

PHILLIPS       FOG       59  59 100 CALM      29.84R VSB 1/2
6HR MIN TEMP:  57; 6HR MAX TEMP:  60;

TOMAHAWK       CLOUDY    60  59  97 CALM      29.86R FOG
6HR MIN TEMP:  56; 6HR MAX TEMP:  60;

MEDFORD        PTSUNNY   60  60  99 S7        29.86R FOG
6HR MIN TEMP:  57; 6HR MAX TEMP:  60;

MERRILL        MOSUNNY   60  60 100 S3        29.87R FOG
$$

WIZ029-030-035-036-043>047-261300-
CENTRAL WISCONSIN

CITY           SKY/WX    TMP DP  RH WIND       PRES   REMARKS
WAUSAU         MOSUNNY   63  61  93 SE5       29.85R
6HR MIN TEMP:  60; 6HR MAX TEMP:  63;

MOSINEE        SUNNY     63  63 100 CALM      29.87R
MARSHFIELD     MOSUNNY   63  60  90 S3        29.85R
6HR MIN TEMP:  58; 6HR MAX TEMP:  64;

STEVENS POINT  MOSUNNY   62  61  97 CALM      29.86S
6HR MIN TEMP:  57; 6HR MAX TEMP:  62;

WAUPACA        SUNNY     66  64  94 CALM      29.86R
6HR MIN TEMP:  61; 6HR MAX TEMP:  66;

WAUTOMA        PTSUNNY   64  64 100 CALM      29.85F
6HR MIN TEMP:  58; 6HR MAX TEMP:  67; 6HR PCP:  0.01;

WISC RAPIDS    MOSUNNY   64  61  90 CALM      29.86S
6HR MIN TEMP:  58; 6HR MAX TEMP:  64;

CAMP DOUGLAS   CLOUDY    64  64 100 CALM      29.84R
                                      6HR PCP: TRACE;

$$

WIZ011>013-019>022-031-037>040-048>050-261300-
NORTHEAST WISCONSIN

CITY           SKY/WX    TMP DP  RH WIND       PRES   REMARKS
ANTIGO         PTSUNNY   60  60 100 S8        29.87R FOG
SHAWANO        SUNNY     65  62  89 CALM      29.87R
6HR MIN TEMP:  61; 6HR MAX TEMP:  65;

OCONTO         SUNNY     66  64  91 S5        29.85S
6HR MIN TEMP:  61; 6HR MAX TEMP:  66;

STURGEON BAY   MOSUNNY   64  59  82 S7        29.90R
6HR MIN TEMP:  63; 6HR MAX TEMP:  66;

GREEN BAY      SUNNY     69  63  81 SW9       29.86S
6HR MIN TEMP:  62; 6HR MAX TEMP:  69;

MANITOWOC      SUNNY     60  56  86 E6        29.90R
6HR MIN TEMP:  55; 6HR MAX TEMP:  70;

APPLETON       MOSUNNY   66  63  88 S13       29.86F
CLINTONVILLE   SUNNY     64  61  88 CALM      29.86R
OSHKOSH        MOSUNNY   67  63  87 S14       29.86S
6HR MIN TEMP:  61; 6HR MAX TEMP:  67;

$$

WIZ032>034-041-042-053>061-261300-
SOUTHWEST WISCONSIN

CITY           SKY/WX    TMP DP  RH WIND       PRES   REMARKS
LA CROSSE      PTSUNNY   63  59  87 E5        29.82R
6HR MIN TEMP:  61; 6HR MAX TEMP:  70; 6HR PCP:  0.05;

SPARTA         CLOUDY    60  59  96 CALM      29.85R
6HR MIN TEMP:  58; 6HR MAX TEMP:  67; 6HR PCP:  0.06;

VIROQUA        PTSUNNY   63  58  84 SE10      29.83S
6HR MIN TEMP:  60; 6HR MAX TEMP:  67;

BOSCOBEL       CLOUDY    62  59  90 E3        29.83S
6HR MIN TEMP:  58; 6HR MAX TEMP:  70; 6HR PCP: TRACE;

PRAIRIE DU CHI CLOUDY    63  58  86 E3        29.80F
6HR MIN TEMP:  60; 6HR MAX TEMP:  69;

PLATTEVILLE    CLOUDY    67  66  95 E7        29.84F
6HR MIN TEMP:  64; 6HR MAX TEMP:  69; 6HR PCP:  0.06;

$$

WIZ056-057-062-063-064-067-068-261300-
SOUTH CENTRAL WISCONSIN

CITY           SKY/WX    TMP DP  RH WIND       PRES   REMARKS
REEDSBURG      CLOUDY    65  61  89 CALM      29.85R
6HR MIN TEMP:  63; 6HR MAX TEMP:  67;

BARABOO/DELLS  CLOUDY    66  60  82 S10       29.85S
6HR MIN TEMP:  62; 6HR MAX TEMP:  67;

LONE ROCK      CLOUDY    65  61  87 E8        29.85R
6HR MIN TEMP:  61; 6HR MAX TEMP:  68; 6HR PCP: TRACE;

MINERAL POINT  CLOUDY    68  64  88 SE7       29.87R
MADISON        CLOUDY    67  64  90 S8        29.87S
6HR MIN TEMP:  66; 6HR MAX TEMP:  69; 6HR PCP:  0.02;

MIDDLETON      CLOUDY    69  67  92 S7        29.88R
6HR MIN TEMP:  66; 6HR MAX TEMP:  69; 6HR PCP:  0.05;

WATERTOWN      CLOUDY    66  66 100 S6        29.89S
6HR MIN TEMP:  64; 6HR MAX TEMP:  66;

MONROE         CLOUDY    66  64  94 S12       29.89R FOG
JANESVILLE     CLOUDY    70  66  88 S12G17    29.89R
$$

WIZ051-052-058>065-066-070>072-261300-
SOUTHEAST WISCONSIN

CITY           SKY/WX    TMP DP  RH WIND       PRES   REMARKS
MILWAUKEE      PTSUNNY   68  64  87 S12       29.91S
6HR MIN TEMP:  65; 6HR MAX TEMP:  68;

WAUKESHA       CLOUDY    64  63  94 S12G23    29.91F FOG
MILWAUKEE/TIMM MOSUNNY   68  63  83 S7        29.91S
RACINE         CLOUDY    65  61  87 S6        29.94S
6HR MIN TEMP:  63; 6HR MAX TEMP:  71;

BURLINGTON     CLOUDY    66  64  93 S6        29.92S
6HR MIN TEMP:  59; 6HR MAX TEMP:  66;

KENOSHA        CLOUDY    69  65  86 S12       29.92F
6HR MIN TEMP:  67; 6HR MAX TEMP:  69;

FOND DU LAC    CLOUDY    69  63  81 S10G20    29.88S
6HR MIN TEMP:  66; 6HR MAX TEMP:  69;

SHEBOYGAN      MOSUNNY   67  63  87 S9        29.89S
6HR MIN TEMP:  59; 6HR MAX TEMP:  67;

WEST BEND      MOSUNNY   68  63  83 S5        29.90S
JUNEAU         CLOUDY    66  64  93 S9        29.90S
6HR MIN TEMP:  62; 6HR MAX TEMP:  67;

$$

LSZ147-162-261300-
LAKE SUPERIOR

STATION/POSITION TIME  TEMP    WIND        PRES    WAVE
                       AIR SEA DIR/SP/G            HT/PER
                 (UTC) (F)     (DEG/KT/KT) (MB)    (FT/S)
W MID LAKE BUOY  1150   39 36  270/  6/  6   N/A     1
DEVILS ISLAND    1200   44     250/  6/  7   N/A
PORT WING        1140   45     320/  3/  4   N/A
SAXON HARBOR     1100   47     330/  1/  4   N/A
$$

LMZ867-665-643>646-261300-
LAKE MICHIGAN

STATION/POSITION TIME  TEMP    WIND        PRES    WAVE
                       AIR SEA DIR/SP/G            HT/PER


USA.gov is the U.S. government's official web portal to all federal, state and local government web resources and services.